Flag for Germany Weather past 2 weeks in Nuremberg, Bavaria, Germany

Now
48 °F

Scattered clouds.


Feels Like: 43 °F
Forecast: 34 / 51 °F
Wind: 12 mph from Northwest

Location: Nuernberg

Current Time: Mar 27, 2015 at 2:51:29 PM

Latest Report: Mar 27, 2015 at 2:20 PM


Visibility: N/A

Pressure: 30.04 "Hg

Humidity: 58%

Dew point: 34 °F

Location of NurembergLocation

Historic Weather in Nuremberg — Graph

°F

Nuremberg temperature yesterday

Maximum temperature yesterday: 50 °F (at 12:20 AM)
Minimum temperature yesterday: 41 °F (at 11:20 PM)
Average temperature yesterday: 44 °F

Past Weeks' High & Low Weather Summary

 TemperatureHumidityPressure
High64 °F (Mar 17, 2:50 PM)100% (Mar 15, 6:50 AM)30.36 "Hg (Mar 15, 6:50 AM)
Low27 °F (Mar 21, 2:20 AM)21% (Mar 20, 4:20 PM)29.56 "Hg (Mar 25, 2:50 PM)
Average43 °F69%30.08 "Hg
* Reported Mar 12 1:20 PM — Mar 27 1:20 PM, Nuremberg, Weather by CustomWeather, © 2015

Note: Actual official high and low records may vary slightly from our data, if they occured in-between our weather recording intervals... More about our weather records

Advertising

Nuremberg weather history for previous 24 hours

 ConditionsComfort  
Time TempWeatherWind HumidityBarometerVisibility
1:20 PM
Fri, Mar 27
48 °FScattered clouds.3 mph54%30.01 "HgN/A
12:50 PM45 °FScattered clouds.8 mph66%30.04 "HgN/A
12:20 PM48 °FScattered clouds.12 mph50%30.01 "HgN/A
11:50 AM46 °FScattered clouds.13 mph62%30.01 "HgN/A
11:20 AM45 °FPartly sunny.12 mph66%30.01 "HgN/A
10:50 AM41 °FSprinkles. Scattered clouds.17 mph76%30.01 "HgN/A
10:20 AM46 °FScattered clouds.18 mph62%29.98 "HgN/A
9:50 AM45 °FScattered clouds.16 mph71%29.98 "HgN/A
9:20 AM43 °FBroken clouds.16 mph81%29.98 "HgN/A
8:50 AM45 °FBroken clouds.13 mph81%29.98 "HgN/A
8:20 AM43 °FBroken clouds.9 mph87%29.98 "HgN/A
7:50 AM43 °FBroken clouds.10 mph87%29.95 "HgN/A
7:20 AM41 °FScattered clouds.7 mph87%29.95 "HgN/A
6:50 AM41 °FBroken clouds.8 mph87%29.92 "HgN/A
6:20 AM41 °FPartly sunny.6 mph93%29.92 "HgN/A
5:50 AM41 °FPassing clouds.8 mph93%29.92 "HgN/A
5:20 AM41 °FPartly cloudy.3 mph87%29.89 "HgN/A
3:50 AM41 °FLight rain. Passing clouds.8 mph87%29.86 "HgN/A
3:20 AM41 °FPassing clouds.5 mph87%29.86 "HgN/A
2:50 AM41 °FPassing clouds.7 mph87%29.86 "HgN/A
2:20 AM41 °FPassing clouds.8 mph87%29.86 "HgN/A
1:50 AM41 °FPassing clouds.7 mph87%29.86 "Hg5 mi
1:20 AM39 °FLight rain. Partly cloudy.7 mph93%29.86 "Hg4 mi
12:50 AM41 °FLight rain. Partly cloudy.12 mph87%29.86 "Hg4 mi
12:20 AM41 °FLight rain. Partly cloudy.8 mph87%29.86 "Hg6 mi
11:50 PM
Thu, Mar 26
41 °FLight rain. Passing clouds.7 mph87%29.86 "Hg6 mi
11:20 PM41 °FLight rain. Overcast.13 mph81%29.86 "HgN/A
10:20 PM43 °FOvercast.5 mph81%29.83 "Hg5 mi
9:50 PM43 °FOvercast.5 mph81%29.83 "Hg5 mi
9:20 PM43 °FOvercast.6 mph81%29.83 "Hg5 mi
8:50 PM43 °FOvercast.6 mph81%29.83 "Hg5 mi
8:20 PM43 °FLight rain. Clear.6 mph81%29.83 "HgN/A
7:50 PM45 °FPassing clouds.6 mph76%29.80 "HgN/A
7:20 PM45 °FOvercast.6 mph76%29.80 "HgN/A
6:50 PM45 °FLight rain. Mostly cloudy.7 mph76%29.80 "HgN/A
6:20 PM45 °FLight rain. Mostly cloudy.9 mph76%29.80 "Hg6 mi
5:50 PM45 °FLight rain. Overcast.10 mph76%29.80 "Hg6 mi
5:20 PM46 °FOvercast.10 mph71%29.80 "Hg6 mi
4:50 PM46 °FMostly cloudy.6 mph71%29.77 "Hg6 mi
4:20 PM46 °FOvercast.7 mph71%29.77 "Hg6 mi
3:50 PM46 °FOvercast.5 mph71%29.77 "Hg6 mi
3:20 PM46 °FOvercast.8 mph71%29.77 "Hg4 mi
2:50 PM45 °FOvercast.8 mph76%29.77 "Hg4 mi
2:20 PM45 °FOvercast.8 mph76%29.77 "Hg4 mi
Weather by CustomWeather, © 2015

See weather overviewHow to use our weather pages